Wind_Speed
9 11 10 17 16 16 19 23 6 2 5 2 4 5 14 20 19 22 18 18 9 7 9 11 15 21 27 30 36 39 43 44 44 44 45 44 45 46 45 49 53 55 56
11 6 9 21 22 23 25 14 5 16 17 7 14 11 17 24 29 23 23 17 19 16 19 16 21 21 23 29 36 37 38 41 44 48 51 54 54 54 56 57 56 57 56
15 10 5 26 19 22 15 19 24 27 27 24 23 21 25 32 33 33 29 30 25 25 25 24 30 30 32 34 36 40 45 46 46 47 48 50 51 53 53 56 59 62 62
23 18 16 8 22 28 22 29 29 30 31 34 35 34 32 34 36 36 33 36 20 22 22 27 28 35 35 38 37 44 47 50 52 53 54 54 55 55 56 55 54 55 55
34 23 22 19 19 13 11 12 21 31 37 38 42 37 39 36 38 38 39 31 27 31 35 35 39 39 43 43 42 44 46 48 52 56 59 62 64 63 63 62 61 61 59
38 36 29 27 28 17 15 14 21 28 33 36 44 41 40 39 42 41 40 37 38 36 44 45 40 42 42 39 40 44 44 46 51 58 61 63 63 65 67 68 69 68 65
43 42 35 34 31 30 23 31 40 34 31 34 40 42 42 45 42 45 42 41 40 39 46 48 46 45 43 45 44 45 47 48 52 53 61 63 60 61 60 59 60 66 66
43 43 36 39 39 37 36 36 38 44 39 38 41 43 40 46 45 45 46 45 45 48 52 50 52 46 44 42 47 50 52 55 58 58 55 63 68 67 67 67 65 65 70
42 39 40 42 43 43 42 43 42 43 44 44 44 44 42 44 46 48 49 47 47 50 51 52 55 57 60 59 59 57 56 60 60 62 64 68 75 72 69 76 82 79 79
40 37 35 38 42 43 43 46 50 50 52 51 52 52 54 52 54 52 49 57 50 51 56 59 62 63 65 70 74 78 81 77 78 80 79 82 73 76 82 86 84 86 94
41 38 35 35 39 42 45 45 46 48 48 49 50 49 48 49 50 53 53 52 54 59 62 66 71 75 75 77 77 79 83 86 91 91 91 91 90 84 82 78 88 92 94
44 44 39 38 40 41 43 45 49 47 47 45 47 51 54 54 56 55 55 60 63 67 71 75 74 77 80 83 88 90 97 98 99 95 91 90 89 85 82 82 79 84 92
46 43 42 42 43 44 39 39 42 42 44 45 45 49 46 46 51 55 62 68 74 78 79 82 84 87 90 95 98 102 105 102 98 99 99 96 94 92 91 90 88 88 89
39 38 40 40 41 43 46 47 46 51 52 47 48 51 51 59 65 68 72 80 82 83 84 87 89 93 96 102 108 108 106 104 105 102 99 96 93 93 92 89 88 88 88
21 22 30 32 34 37 40 47 48 49 54 58 63 62 64 67 73 77 83 83 84 87 92 95 98 104 109 114 113 110 106 108 102 95 92 92 90 89 88 88 88 87 84
22 30 25 33 35 37 35 40 45 48 51 56 59 63 69 74 79 80 82 85 92 97 99 102 107 112 114 113 112 106 100 95 91 86 82 77 76 76 75 76 74 73 70
25 25 24 33 34 37 38 44 48 51 57 63 67 70 75 78 81 83 88 93 97 103 106 110 111 111 109 109 99 91 86 80 77 74 70 67 66 65 62 62 61 60 57
26 25 30 37 38 41 46 48 52 56 62 65 68 73 78 81 86 90 92 99 104 109 109 108 108 108 109 95 91 83 79 72 67 62 57 54 52 51 50 49 49 47 45
30 33 35 37 40 44 46 49 54 59 65 71 77 80 82 87 91 95 99 106 108 109 111 110 109 103 94 87 80 75 68 61 56 52 50 47 44 42 42 41 42 41 40
34 36 39 42 41 44 50 57 60 63 68 75 79 81 86 89 94 99 103 106 108 109 106 97 91 87 79 74 68 61 56 51 47 43 40 37 36 35 33 33 33 31 28
40 41 42 47 50 52 58 59 58 66 74 77 79 83 88 93 93 98 102 104 104 92 86 84 82 72 71 67 58 53 47 44 40 36 33 30 28 26 24 24 23 20 18
31 35 41 48 50 53 58 62 70 73 71 76 78 86 90 90 94 96 104 95 86 81 81 74 66 65 63 56 51 46 41 38 35 31 27 25 22 19 17 15 15 14 14
39 43 48 52 57 61 67 64 64 67 71 77 80 82 89 95 100 95 89 79 78 77 69 62 60 59 54 48 44 39 35 32 28 24 21 19 17 15 14 13 14 14 15
41 47 53 57 64 67 63 66 70 73 80 84 89 94 94 93 82 77 75 76 74 68 60 57 56 50 45 40 36 31 28 26 24 20 19 18 16 16 16 16 16 19 20
47 53 56 56 55 58 62 61 66 75 83 89 88 87 82 77 72 73 73 72 66 60 54 53 48 42 36 33 30 26 24 24 22 19 20 21 22 23 22 24 24 25 28
49 48 48 50 54 58 63 69 76 79 83 81 79 74 68 67 69 72 69 67 60 56 53 49 40 34 31 28 28 27 27 27 26 25 25 26 27 27 28 30 32 33 34
Wind_Direction
295 276 289 173 158 150 170 156 151 12 307 237 129 327 324 342 351 349 1 359 343 338 336 324 327 294 283 278 273 271 270 267 266 264 261 260 260 260 259 259 259 257 257
246 272 247 196 167 160 179 193 287 310 303 318 311 326 330 331 335 332 336 318 331 310 270 280 293 297 281 281 274 273 271 270 267 266 266 267 263 259 259 259 258 258 258
232 240 239 217 217 194 231 268 285 281 286 295 300 302 307 322 323 321 322 312 293 302 290 276 299 289 287 278 280 275 273 272 271 270 268 267 265 265 262 261 260 259 258
230 236 266 223 236 221 259 264 274 270 279 289 287 297 307 306 307 311 311 308 316 318 305 309 301 299 303 300 298 284 277 277 276 273 271 269 268 268 267 266 263 262 259
243 238 251 240 246 249 266 268 276 265 268 272 280 289 294 301 301 301 302 295 309 314 312 312 302 304 301 300 295 291 285 275 272 271 271 269 270 268 266 265 266 264 263
250 252 252 245 249 251 245 225 235 248 257 268 271 279 289 293 290 293 289 299 308 305 312 308 309 305 308 309 303 298 295 289 287 286 278 274 275 274 270 266 265 264 261
249 254 252 251 250 251 238 227 242 253 265 273 274 281 284 288 286 279 283 299 308 307 307 307 308 307 307 306 300 302 297 295 288 290 281 279 279 275 274 273 271 272 266
259 258 259 251 247 248 246 249 248 250 256 265 273 272 277 280 276 288 295 300 300 300 303 304 305 302 302 303 300 304 301 293 293 287 294 277 274 276 270 266 265 265 267
260 259 256 250 250 249 249 247 249 249 252 256 267 276 281 277 287 291 293 298 299 298 299 301 298 298 303 302 300 297 293 291 290 289 286 292 278 273 279 273 265 265 264
257 262 257 250 248 250 255 254 253 252 258 264 270 273 280 286 288 291 293 298 298 296 295 298 299 301 299 298 298 297 298 295 295 295 296 297 293 280 274 272 273 267 263
252 262 259 261 261 260 257 258 260 260 261 267 274 282 285 284 286 290 292 291 294 297 299 298 297 298 299 299 301 300 300 300 298 296 296 295 293 289 284 277 270 267 265
259 259 262 256 252 258 262 264 265 263 270 274 274 277 279 283 285 289 292 296 293 294 295 298 299 299 297 299 305 307 306 304 302 298 295 294 292 288 285 281 277 272 269
258 263 265 266 258 253 259 262 270 272 272 268 270 275 281 285 291 293 298 301 301 300 301 298 298 304 305 307 307 305 305 302 300 298 295 293 291 289 287 282 278 276 272
266 272 276 272 264 261 262 260 263 269 270 276 279 281 282 289 293 292 292 297 298 297 297 299 304 304 305 307 308 307 304 302 301 297 295 293 291 288 287 285 284 279 274
267 277 278 277 275 268 261 259 265 271 274 277 280 284 286 289 294 296 296 299 301 303 304 306 306 304 305 308 309 306 304 303 300 296 295 292 290 288 286 284 282 280 277
249 267 283 289 284 281 277 271 274 275 277 279 284 287 289 292 293 294 297 299 302 306 306 304 304 307 309 307 307 306 303 301 298 295 293 292 290 287 285 283 281 280 279
254 254 272 266 280 280 280 271 278 278 279 282 286 289 291 294 296 300 303 306 306 305 306 309 310 309 309 309 307 306 305 302 301 299 296 293 289 286 285 284 284 284 282
246 264 278 275 278 278 279 280 284 283 285 291 292 295 298 301 302 304 305 305 307 309 310 309 310 309 312 311 310 309 309 307 303 300 297 295 293 291 290 287 284 284 282
254 259 271 273 282 285 287 288 294 296 298 301 301 301 301 302 305 306 308 310 310 308 308 310 312 312 312 312 311 310 308 306 303 300 298 297 297 295 291 289 286 284 281
253 252 271 284 292 291 293 299 299 297 297 297 298 299 301 305 306 309 308 308 309 310 313 312 312 312 310 310 311 311 310 310 308 307 305 302 300 296 292 290 289 287 282
258 270 279 287 290 293 292 291 296 298 295 297 300 301 302 305 308 309 309 309 311 311 312 313 312 312 314 316 316 315 316 316 316 315 313 309 307 305 299 295 296 292 285
266 276 282 287 288 289 296 298 296 298 298 297 300 302 306 307 309 310 312 312 311 312 313 313 314 316 318 319 320 321 321 323 322 321 319 319 320 317 312 308 302 296 296
252 267 283 288 292 294 295 299 298 299 300 301 305 309 309 311 311 311 311 311 313 315 315 316 318 319 319 321 324 325 327 328 328 331 334 336 332 326 322 316 312 307 302
268 276 279 282 287 291 292 295 298 302 303 309 310 310 311 309 311 311 313 315 318 318 318 320 320 318 318 325 330 334 339 338 340 340 335 331 326 317 311 307 298 293 294
275 280 286 289 293 295 297 301 303 306 308 311 313 312 312 312 313 315 318 319 320 318 319 320 318 316 318 327 336 338 338 339 341 338 332 328 321 313 304 298 291 286 285
279 286 288 291 294 301 305 306 309 310 311 314 313 311 312 314 316 318 320 322 322 323 322 320 316 314 316 324 330 337 339 335 331 328 327 324 319 314 310 303 300 295 291
Height
10931 10928 10928 10927 10929 10928 10925 10930 10932 10934 10939 10941 10940 10937 10935 10934 10932 10930 10931 10930 10928 10928 10927 10926 10925 10923 10921 10920 10918 10918 10918 10918 10918 10917 10917 10918 10919 10917 10918 10916 10916 10917 10917
10928 10928 10928 10929 10930 10933 10934 10936 10938 10939 10940 10938 10934 10931 10929 10928 10928 10928 10926 10925 10924 10923 10921 10920 10918 10916 10914 10911 10910 10909 10907 10905 10904 10904 10903 10903 10902 10903 10902 10902 10903 10900 10902
10925 10925 10925 10927 10930 10931 10933 10934 10935 10934 10931 10932 10929 10927 10926 10923 10922 10919 10918 10918 10916 10914 10913 10911 10909 10907 10906 10904 10900 10898 10895 10894 10892 10890 10890 10888 10886 10885 10884 10884 10885 10885 10885
10920 10921 10920 10923 10926 10929 10930 10927 10928 10926 10925 10924 10921 10921 10919 10919 10916 10913 10912 10910 10908 10906 10905 10903 10901 10900 10897 10893 10891 10888 10885 10882 10880 10878 10876 10874 10872 10870 10868 10867 10867 10866 10868
10914 10915 10918 10919 10920 10921 10923 10924 10920 10919 10917 10915 10915 10913 10912 10911 10908 10906 10904 10903 10901 10899 10897 10895 10893 10890 10885 10882 10878 10874 10871 10867 10864 10861 10856 10853 10851 10850 10850 10849 10847 10848 10849
10905 10907 10909 10911 10912 10917 10920 10920 10906 10912 10906 10908 10907 10907 10904 10903 10900 10897 10896 10894 10891 10889 10886 10883 10880 10876 10872 10867 10865 10862 10857 10854 10851 10846 10840 10837 10834 10830 10828 10828 10828 10827 10827
10896 10897 10901 10902 10905 10908 10912 10910 10904 10901 10900 10898 10899 10898 10895 10891 10891 10888 10885 10881 10878 10875 10873 10870 10864 10861 10856 10853 10850 10847 10842 10838 10833 10830 10826 10823 10820 10817 10814 10811 10808 10807 10806
10883 10887 10889 10891 10895 10897 10898 10899 10900 10896 10893 10892 10892 10889 10887 10883 10880 10877 10872 10869 10865 10862 10859 10854 10848 10844 10840 10835 10830 10826 10822 10817 10813 10810 10808 10806 10803 10798 10795 10793 10789 10787 10785
10872 10876 10879 10878 10883 10886 10887 10888 10887 10886 10885 10884 10882 10878 10874 10872 10868 10864 10861 10858 10853 10849 10844 10839 10836 10831 10826 10821 10815 10810 10805 10801 10795 10790 10785 10781 10776 10773 10770 10767 10766 10762 10760
10862 10865 10869 10868 10870 10872 10874 10876 10876 10875 10875 10872 10869 10866 10862 10859 10855 10853 10848 10843 10839 10836 10829 10824 10818 10815 10808 10802 10797 10788 10781 10775 10769 10762 10757 10751 10748 10743 10739 10735 10732 10734 10731
10854 10853 10858 10859 10859 10860 10861 10862 10863 10863 10859 10858 10856 10853 10849 10846 10843 10838 10834 10830 10824 10819 10814 10809 10797 10789 10783 10777 10771 10763 10755 10746 10739 10733 10723 10716 10711 10708 10704 10699 10695 10695 10695
10843 10846 10847 10847 10849 10850 10851 10852 10850 10849 10849 10846 10843 10840 10838 10833 10828 10824 10820 10814 10809 10803 10796 10787 10779 10771 10761 10751 10741 10733 10722 10714 10704 10693 10686 10678 10674 10668 10665 10663 10663 10658 10655
10833 10836 10837 10838 10840 10840 10840 10839 10838 10838 10834 10832 10830 10825 10820 10817 10813 10809 10802 10796 10788 10780 10772 10762 10754 10744 10733 10720 10712 10703 10688 10679 10666 10657 10648 10639 10634 10629 10626 10622 10619 10620 10620
10826 10828 10826 10828 10827 10828 10829 10828 10826 10824 10823 10819 10818 10814 10806 10799 10794 10790 10784 10776 10767 10758 10749 10737 10726 10715 10704 10693 10682 10666 10653 10641 10630 10618 10607 10599 10593 10588 10583 10581 10579 10577 10579
10818 10818 10817 10817 10816 10816 10817 10815 10815 10812 10809 10806 10802 10797 10794 10788 10779 10772 10763 10752 10742 10733 10720 10709 10699 10686 10674 10658 10642 10628 10616 10602 10590 10580 10572 10564 10558 10551 10546 10543 10540 10540 10541
10810 10812 10810 10810 10809 10806 10806 10804 10801 10799 10795 10790 10787 10783 10775 10770 10763 10753 10741 10732 10721 10709 10698 10686 10673 10656 10641 10626 10610 10594 10579 10566 10556 10547 10539 10532 10526 10521 10516 10512 10510 10510 10509
10801 10802 10804 10801 10798 10797 10795 10792 10788 10786 10781 10777 10773 10768 10758 10749 10740 10730 10720 10708 10697 10684 10671 10655 10640 10625 10611 10595 10577 10563 10551 10539 10527 10517 10511 10506 10500 10496 10492 10488 10486 10484 10483
10793 10794 10794 10791 10788 10785 10783 10781 10778 10774 10768 10762 10754 10746 10739 10729 10717 10707 10697 10683 10670 10658 10641 10626 10612 10596 10580 10563 10550 10535 10523 10513 10504 10496 10490 10484 10479 10475 10470 10468 10465 10464 10463
10785 10785 10782 10781 10779 10776 10772 10770 10765 10759 10753 10745 10732 10727 10717 10708 10696 10684 10672 10656 10642 10628 10615 10598 10582 10567 10553 10539 10527 10516 10506 10496 10486 10478 10472 10466 10462 10458 10454 10451 10449 10448 10448
10772 10773 10772 10770 10767 10765 10762 10758 10753 10746 10739 10730 10721 10708 10693 10686 10676 10663 10649 10635 10618 10601 10585 10571 10560 10549 10537 10525 10513 10501 10490 10480 10471 10464 10457 10452 10449 10445 10442 10440 10439 10437 10436
10766 10765 10764 10761 10758 10754 10751 10745 10738 10731 10722 10712 10700 10689 10682 10669 10655 10643 10628 10613 10596 10581 10570 10556 10545 10531 10518 10507 10496 10486 10478 10468 10460 10453 10447 10443 10440 10436 10433 10432 10429 10427 10426
10757 10757 10754 10750 10747 10743 10737 10730 10723 10713 10703 10694 10685 10670 10659 10648 10636 10620 10604 10590 10576 10565 10552 10540 10528 10516 10505 10495 10485 10475 10467 10459 10452 10446 10440 10436 10432 10429 10427 10425 10424 10422 10421
10747 10746 10743 10739 10734 10729 10722 10715 10705 10695 10684 10675 10666 10654 10639 10625 10614 10600 10586 10574 10561 10548 10536 10525 10515 10503 10494 10486 10477 10468 10460 10452 10446 10441 10436 10433 10430 10427 10424 10423 10421 10419 10418
10739 10736 10731 10727 10722 10714 10707 10699 10690 10679 10666 10653 10645 10636 10623 10609 10595 10582 10569 10558 10545 10532 10522 10511 10502 10493 10486 10479 10471 10462 10455 10449 10444 10440 10436 10432 10429 10426 10423 10421 10419 10417 10415
10728 10724 10719 10713 10707 10702 10694 10686 10672 10660 10647 10636 10624 10613 10599 10588 10576 10566 10555 10543 10531 10520 10510 10501 10492 10485 10479 10472 10465 10459 10453 10448 10444 10439 10435 10432 10428 10424 10421 10418 10414 10411 10408
10715 10711 10707 10702 10695 10688 10680 10669 10658 10645 10636 10625 10612 10599 10586 10575 10564 10554 10541 10528 10516 10507 10498 10490 10483 10478 10472 10467 10461 10455 10450 10445 10441 10437 10432 10428 10423 10419 10414 10410 10405 10401 10397